Location: Passau
(48.5830°N, 13.4830°E)
Time: 21:28:19
(UTC+02:00)

Vanguard 3 - Pass Details

Date: 23 May 2024
Orbit: 509 x 3231 km, 33.3° (Epoch: 16 June)

Event Time Altitude Azimuth Distance (km) Brightness Sun altitude
Rises 20:00:26 0° 230° (SW) 4,088 11.1 6.5°
Reaches altitude 10° 20:03:06 10° 220° (SW) 3,435 10.6 6.1°
Maximum altitude 20:11:07 34° 160° (SSE) 2,850 9.6 4.9°
Drops below altitude 10° 20:23:42 10° 104° (ESE) 5,435 10.7 3.0°
Sets 20:29:14 0° 97° (E) 6,791 11.3 2.2°
